{"data":{"norad_id":63676,"intl_designator":"2025-085N","name":"STARLINK-11661 [DTC]","alt_names":[],"object_type":"PAYLOAD","status":"ACTIVE","operator":null,"country":"US","launch_date":"2025-04-28","launch_site_code":"AFETR","launch_vehicle":null,"mission":null,"orbit_class":"UNKNOWN","rcs_meters":null,"size_class":null,"mass_kg":null,"dimensions":null,"purposes":["comms"],"wikipedia_slug":null,"has_3d_model":false,"image_url":null,"decayed_at":null,"tle_current":{"epoch":"2026-05-24T18:58:09.677856Z","epoch_age_seconds":89845,"freshness":"FRESH","line1":"1 63676U 25085N   26144.79038979  .00170793  00000+0  13051-2 0  9995","line2":"2 63676  42.9992 179.4253 0000840 300.2529  59.8256 15.70881532 62866","mean_motion":15.70881532,"eccentricity":8.4e-5,"inclination_deg":42.9992,"raan_deg":179.4253,"arg_perigee_deg":300.2529,"mean_anomaly_deg":59.8256,"bstar":0.0013051,"rev_number":6286,"period_min":91.668274829524,"perigee_km":355.81065883302,"apogee_km":356.94205707715,"semimajor_km":6734.5133579551,"source":"CELESTRAK","updated_at":"2026-05-25T13:38:20.092876Z"}}}